[[[{"header":{"parameterUnit":"kt","parameterCategory":2,"dx":1,"dy":1,"la1":30.253999710083008,"la2":30.299108505249023,"lo1":-89.0895004272461,"lo2":-89.04439544677734,"nx":28,"ny":28,"refTime":"2022-09-20T15:00:00:Z","depth":0,"parameterNumber":1,"parameterNumberName":"U-component_of_WINDS"},"data":[-1.8478,-1.8562,-1.8543,-1.8631,-1.8628,-1.8685,-1.8699,-1.8715,-1.8723,-1.8788,-1.8822,-1.8812,-1.8813,-1.8849,-1.8885,-1.888,-1.8898,-1.894,-1.8927,-1.8751,-1.8725,-1.8701,-1.868,-1.8944,-1.8944,-1.9114,-1.9115,-1.9116,-1.8348,-1.8346,-1.8387,-1.8414,-1.8448,-1.8394,-1.8411,-1.8444,-1.8497,-1.8507,-1.854,-1.8596,-1.8638,-1.8624,-1.8661,-1.8701,-1.8679,-1.8712,-1.8711,-1.8712,-1.8522,-1.85,-1.8729,-1.8729,-1.8729,-1.8729,-1.8729,-1.8729,-1.8106,-1.8158,-1.8163,-1.8207,-1.8215,-1.8233,-1.8279,-1.8265,-1.8305,-1.8341,-1.8311,-1.837,-1.8377,-1.8414,-1.8421,-1.8467,-1.8426,-1.8458,-1.8467,-1.8476,-1.8489,-1.8249,-1.8472,-1.8471,-1.847,-1.847,-1.8469,0,-1.7924,-1.7905,-1.7943,-1.7975,-1.8006,-1.803,-1.8048,-1.8076,-1.8029,-1.8064,-1.8113,-1.8139,-1.8189,-1.8233,-1.8264,-1.8266,-1.8217,-1.8209,-1.8231,-1.8249,-1.8259,-1.8257,-1.795,-1.8204,-1.8201,-1.82,-1.8198,-1.8197,-1.7681,-1.7743,-1.774,-1.7769,-1.7774,-1.7823,-1.7847,-1.7801,-1.783,-1.7846,-1.7894,-1.7937,-1.7971,-1.8053,-1.8038,-1.8075,-1.8053,-1.8152,-1.8058,-1.8071,-1.8057,-1.8055,-1.8061,-1.8172,-1.8175,-1.8178,-1.818,0,-1.7547,-1.7515,-1.7606,-1.7596,-1.7596,-1.7663,-1.7655,-1.7705,-1.7686,-1.7752,-1.7765,-1.7737,-1.7786,-1.7754,-1.7805,-1.7787,-1.7898,-1.7873,-1.7895,-1.7889,-1.7976,-1.797,-1.8261,-1.8297,-1.8021,-1.8024,-1.8026,0,-1.7329,-1.7412,-1.7361,-1.7415,-1.7506,-1.7458,-1.7549,-1.7542,-1.7548,-1.76,-1.7537,-1.7587,-1.7538,-1.7583,-1.7557,-1.7642,-1.7651,-1.7643,-1.7636,-1.7651,-1.7652,-1.7668,-1.7657,-1.7614,-1.7612,-1.7611,-1.761,0,-1.7124,-1.7194,-1.7281,-1.7292,-1.7292,-1.7334,-1.7335,-1.7342,-1.7367,-1.7394,-1.741,-1.7446,-1.7466,-1.7495,-1.7461,-1.7399,-1.7564,-1.7472,-1.7556,-1.7558,-1.7598,-1.7596,-1.7859,-1.7608,-1.7608,-1.7607,-1.7607,0,-1.6944,-1.6972,-1.7103,-1.7101,-1.7122,-1.7179,-1.7211,-1.7252,-1.7264,-1.7251,-1.7272,-1.7228,-1.7299,-1.721,-1.7307,-1.7235,-1.7259,-1.7257,-1.7263,-1.727,-1.7173,-1.7328,-1.7579,-1.7606,-1.7273,-1.727,-1.7267,0,-1.6719,-1.6843,-1.6803,-1.6928,-1.6981,-1.6907,-1.697,-1.6982,-1.697,-1.7013,-1.6999,-1.705,-1.6977,-1.6988,-1.704,-1.7029,-1.7121,-1.7015,-1.7081,-1.7084,-1.7083,-1.7312,-1.7359,-1.7527,-1.7231,-1.7235,-1.7238,0,-1.6541,-1.654,-1.6565,-1.6576,-1.6585,-1.6629,-1.6701,-1.674,-1.6771,-1.6791,-1.6852,-1.6921,-1.6869,-1.6889,-1.6857,-1.6913,-1.7057,-1.685,-1.685,-1.6891,-1.721,-1.7254,-1.7282,-1.7024,-1.7028,-1.7031,-1.7209,0,-1.6281,-1.6339,-1.6405,-1.6433,-1.6461,-1.6538,-1.6504,-1.6539,-1.6505,-1.6491,-1.6578,-1.6581,-1.6623,-1.6646,-1.6614,-1.6751,-1.6724,-1.6668,-1.6583,-1.6732,-1.679,-1.6814,-1.6499,-1.6496,-1.6493,-1.6492,0,0,-1.6075,-1.6157,-1.6112,-1.618,-1.6202,-1.6126,-1.6211,-1.6224,-1.6252,-1.6269,-1.6219,-1.6319,-1.6324,-1.6434,-1.6478,-1.6495,-1.6517,-1.6466,-1.6661,-1.668,-1.6697,-1.676,-1.6785,-1.6488,-1.6487,-1.6486,-1.6485,0,-1.5973,-1.5978,-1.6063,-1.6073,-1.6087,-1.6068,-1.6088,-1.609,-1.6085,-1.617,-1.6108,-1.6156,-1.6238,-1.6252,-1.627,-1.6451,-1.6403,-1.6465,-1.6575,-1.6638,-1.6661,-1.668,-1.6746,-1.677,-1.6479,-1.648,-1.648,0,-1.5794,-1.5794,-1.5831,-1.5877,-1.5886,-1.5943,-1.5843,-1.5907,-1.5949,-1.5865,-1.5951,-1.5949,-1.5965,-1.6073,-1.612,-1.6078,-1.6301,-1.6225,-1.6238,-1.6244,-1.6304,-1.6331,-1.6355,-1.6044,-1.6043,-1.6041,0,0,-1.5712,-1.5765,-1.5752,-1.5853,-1.5863,-1.5836,-1.5863,-1.5833,-1.5848,-1.5855,-1.5852,-1.587,-1.5916,-1.5948,-1.599,-1.6113,-1.6114,-1.6172,-1.6193,-1.621,-1.6225,-1.629,-1.6316,-1.6036,-1.6036,-1.6036,0,0,-1.5673,-1.5662,-1.5625,-1.5737,-1.5754,-1.5749,-1.5812,-1.5767,-1.5802,-1.579,-1.5743,-1.5745,-1.5845,-1.5847,-1.578,-1.596,-1.5874,-1.589,-1.5956,-1.5981,-1.6002,-1.6001,-1.5681,0,0,0,0,0,-1.5553,-1.5662,-1.5629,-1.5643,-1.5702,-1.5767,-1.5774,-1.5737,-1.5677,-1.5728,-1.5718,-1.5664,-1.5801,-1.5741,-1.5756,-1.5832,-1.5969,-1.5981,-1.5992,-1.6106,-1.6133,-1.6156,0,0,0,0,0,0,-1.5558,-1.5576,-1.5626,-1.5627,-1.5639,-1.5762,-1.5653,-1.5646,-1.5671,-1.5659,-1.5668,-1.5665,-1.5635,-1.573,-1.5745,-1.5817,-1.5676,-1.5973,-1.5983,-1.5993,-1.6115,-1.6137,-1.6156,0,0,0,0,0,-1.5562,-1.5576,-1.568,-1.5625,-1.5636,-1.5613,-1.5649,-1.5642,-1.5661,-1.5646,-1.5641,-1.5631,-1.5638,-1.5648,-1.5739,-1.5812,-1.5666,-1.5671,-1.598,-1.5988,-1.5995,-1.6126,0,0,0,0,0,0,-1.5565,-1.5571,-1.5681,-1.5683,-1.5581,-1.5605,-1.5607,-1.5639,-1.5645,-1.5641,-1.5607,-1.5597,-1.5642,-1.5648,-1.5656,-1.5812,-1.5657,-1.5663,-1.5666,-1.5986,-1.5992,-1.5998,0,0,0,0,0,0,-1.5563,-1.5573,-1.5682,-1.5629,-1.5624,-1.5598,-1.5601,-1.5673,-1.5646,-1.5605,-1.5597,-1.5602,-1.5631,-1.5649,-1.5655,-1.5769,-1.5651,-1.5657,-1.566,-1.5662,-1.5991,-1.5996,0,0,0,0,0,0,-1.5566,-1.5575,-1.5628,-1.5625,-1.562,-1.564,-1.5661,-1.5724,-1.56,-1.5606,-1.5588,-1.5582,-1.5634,-1.5638,-1.5655,-1.5767,-1.5769,-1.5651,-1.5655,-1.5658,-1.5659,0,0,0,0,0,0,0,-1.5569,-1.5521,-1.5669,-1.5621,-1.5617,-1.5702,-1.5702,-1.5703,-1.5599,-1.5594,-1.5589,-1.5584,-1.5621,-1.5627,-1.5633,-1.5766,0,0,-1.5651,-1.5653,0,0,0,0,0,0,0,0,-1.5516,-1.5519,-1.5669,-1.5669,-1.567,-1.5702,-1.5702,-1.5703,-1.5598,-1.5594,-1.559,-1.5586,-1.5623,-1.5627,-1.5632,0,0,0,0,0,0,0,0,0,0,0,0,0,0,0,-1.5669,-1.5669,0,-1.5702,-1.5702,-1.5702,-1.5597,-1.5594,-1.5591,-1.5588,-1.5624,-1.5628,-1.5632,0,0,0,0,0,0,0,0,0,0,0,0,0,0,0,0,0,0,0,0,0,0,0,0,0,0,0,0,0,0,0,0,0,0,0,0,0,0,0,0,0,0,0,0,0,0,0,0,0,0,0,0,0,0,0,0,0,0,0,0,0,0,0,0,0,0,0,0,0]}],[{"header":{"parameterUnit":"kt","parameterCategory":2,"dx":1,"dy":1,"la1":30.253999710083008,"la2":30.299108505249023,"lo1":-89.0895004272461,"lo2":-89.04439544677734,"nx":28,"ny":28,"refTime":"2022-09-20T15:00:00:Z","depth":0,"parameterNumber":2,"parameterNumberName":"V-component_of_WINDS"},"data":[-7.8409,-7.8592,-7.8626,-7.8847,-7.8914,-7.9069,-7.9134,-7.9221,-7.9297,-7.9482,-7.9593,-7.964,-7.9724,-7.986,-7.9977,-7.9994,-8.0041,-8.0082,-8.0094,-7.9886,-7.9858,-7.9832,-7.9792,-8.0093,-8.0093,-8.0306,-8.0308,-8.031,-7.8251,-7.8321,-7.8449,-7.8594,-7.8703,-7.8683,-7.8795,-7.8885,-7.9023,-7.9118,-7.923,-7.9393,-7.9524,-7.9594,-7.9724,-7.9804,-7.9799,-7.9837,-7.983,-7.9842,-7.9621,-7.9579,-7.9838,-7.9838,-7.9838,-7.9838,-7.9838,-7.9838,-7.7973,-7.8081,-7.819,-7.8329,-7.841,-7.8506,-7.8613,-7.8671,-7.8793,-7.8937,-7.8949,-7.9103,-7.92,-7.937,-7.9433,-7.9551,-7.9514,-7.9562,-7.9574,-7.9585,-7.9594,-7.928,-7.9574,-7.9573,-7.9573,-7.9572,-7.9572,0,-7.7778,-7.7799,-7.7924,-7.8059,-7.8162,-7.8268,-7.837,-7.8437,-7.8486,-7.8584,-7.8727,-7.8814,-7.8984,-7.9118,-7.9246,-7.9301,-7.9284,-7.9286,-7.9319,-7.9316,-7.9296,-7.9307,-7.8942,-7.9277,-7.9274,-7.9272,-7.9271,-7.927,-7.7497,-7.7621,-7.775,-7.7833,-7.7897,-7.803,-7.8115,-7.815,-7.8237,-7.8364,-7.8456,-7.8593,-7.8705,-7.8924,-7.8984,-7.9109,-7.9101,-7.9225,-7.9119,-7.9111,-7.91,-7.9092,-7.9103,-7.9244,-7.9248,-7.925,-7.9253,0,-7.7336,-7.7389,-7.7591,-7.7705,-7.7737,-7.7863,-7.7958,-7.8065,-7.8108,-7.8261,-7.8299,-7.8365,-7.8502,-7.8543,-7.8707,-7.8723,-7.8922,-7.8913,-7.8889,-7.8888,-7.9002,-7.899,-7.937,-7.9421,-7.9112,-7.9114,-7.9117,0,-7.7116,-7.7276,-7.7346,-7.746,-7.7638,-7.7669,-7.7843,-7.7897,-7.7985,-7.8105,-7.8096,-7.8209,-7.8243,-7.836,-7.8384,-7.8555,-7.8586,-7.8607,-7.8611,-7.8607,-7.8604,-7.865,-7.8634,-7.8618,-7.8616,-7.8614,-7.8613,0,-7.6856,-7.7081,-7.7267,-7.7326,-7.7463,-7.7548,-7.7608,-7.7705,-7.7787,-7.7899,-7.7952,-7.8079,-7.8147,-7.8244,-7.8274,-7.82,-7.8483,-7.8388,-7.8505,-7.8504,-7.8564,-7.8559,-7.8888,-7.861,-7.861,-7.8609,-7.8608,0,-7.6685,-7.6805,-7.7067,-7.7179,-7.7237,-7.7358,-7.7488,-7.7601,-7.7704,-7.7729,-7.7817,-7.7814,-7.7969,-7.7871,-7.8082,-7.7978,-7.8044,-7.808,-7.8089,-7.8103,-7.7992,-7.8169,-7.848,-7.8513,-7.8118,-7.8114,-7.811,0,-7.6372,-7.6651,-7.6681,-7.6928,-7.7063,-7.7046,-7.718,-7.7272,-7.7317,-7.7434,-7.748,-7.7612,-7.7548,-7.7595,-7.7695,-7.7746,-7.7882,-7.7729,-7.789,-7.7895,-7.7862,-7.815,-7.8185,-7.8408,-7.8059,-7.8064,-7.8068,0,-7.6135,-7.6304,-7.6346,-7.6414,-7.6546,-7.6658,-7.6812,-7.6953,-7.7029,-7.7134,-7.7262,-7.7448,-7.7407,-7.7484,-7.7495,-7.7597,-7.7791,-7.7538,-7.754,-7.758,-7.8037,-7.807,-7.8107,-7.7775,-7.7781,-7.7786,-7.8027,0,-7.5862,-7.601,-7.6127,-7.628,-7.6373,-7.6531,-7.6579,-7.667,-7.6673,-7.6717,-7.6906,-7.6991,-7.7129,-7.7183,-7.7185,-7.7407,-7.7375,-7.7329,-7.7235,-7.7424,-7.7504,-7.7537,-7.7112,-7.7109,-7.7107,-7.7105,0,0,-7.5547,-7.576,-7.5789,-7.5943,-7.6023,-7.6003,-7.6167,-7.6241,-7.6393,-7.6448,-7.6397,-7.6672,-7.6743,-7.6966,-7.7029,-7.7085,-7.7127,-7.706,-7.7334,-7.7359,-7.7383,-7.7468,-7.7501,-7.7102,-7.7101,-7.71,-7.7099,0,-7.5458,-7.554,-7.5704,-7.5784,-7.5905,-7.5944,-7.5983,-7.6097,-7.6132,-7.632,-7.6296,-7.6415,-7.6634,-7.6712,-7.678,-7.7035,-7.7008,-7.7074,-7.7196,-7.7311,-7.7339,-7.7364,-7.7453,-7.7485,-7.7094,-7.7095,-7.7095,0,-7.5233,-7.532,-7.5405,-7.5591,-7.5668,-7.5807,-7.5722,-7.5872,-7.5973,-7.5938,-7.6124,-7.6177,-7.6284,-7.6491,-7.6585,-7.654,-7.6897,-7.6793,-7.6808,-7.6818,-7.6931,-7.6965,-7.6995,-7.6599,-7.6597,-7.6595,0,0,-7.5148,-7.5286,-7.5389,-7.5575,-7.5626,-7.5687,-7.5765,-7.5776,-7.5877,-7.5917,-7.5985,-7.608,-7.6207,-7.6291,-7.6413,-7.6633,-7.6656,-7.673,-7.6754,-7.6773,-7.6793,-7.6912,-7.6945,-7.6588,-7.6588,-7.6587,0,0,-7.5106,-7.5235,-7.5221,-7.5445,-7.5543,-7.5654,-7.5764,-7.5748,-7.5864,-7.5851,-7.5873,-7.5899,-7.6093,-7.6145,-7.6045,-7.6379,-7.6285,-7.631,-7.6338,-7.6368,-7.6391,-7.6374,-7.5966,0,0,0,0,0,-7.5041,-7.5219,-7.5206,-7.5251,-7.5484,-7.5662,-7.5691,-7.5716,-7.565,-7.5736,-7.579,-7.5758,-7.6095,-7.6007,-7.6048,-7.616,-7.6495,-7.6512,-7.6527,-7.6615,-7.6646,-7.6672,0,0,0,0,0,0,-7.5058,-7.5113,-7.5201,-7.5319,-7.5372,-7.5655,-7.5548,-7.556,-7.5641,-7.5633,-7.5749,-7.5761,-7.5783,-7.5987,-7.6024,-7.613,-7.5953,-7.6502,-7.6516,-7.6528,-7.6626,-7.6651,-7.6673,0,0,0,0,0,-7.5073,-7.5117,-7.5485,-7.5317,-7.5362,-7.5439,-7.5542,-7.5551,-7.5614,-7.5698,-7.571,-7.5626,-7.5786,-7.5818,-7.6009,-7.6112,-7.5928,-7.5941,-7.6511,-7.6522,-7.6532,-7.6638,0,0,0,0,0,0,-7.5083,-7.5125,-7.5495,-7.5509,-7.5252,-7.5423,-7.5451,-7.5543,-7.5673,-7.5687,-7.5575,-7.5566,-7.579,-7.5814,-7.584,-7.6105,-7.5907,-7.5921,-7.5929,-7.6519,-7.6528,-7.6535,0,0,0,0,0,0,-7.5101,-7.5137,-7.5502,-7.5419,-7.5425,-7.5409,-7.5434,-7.5599,-7.5675,-7.5543,-7.554,-7.5569,-7.575,-7.5812,-7.5832,-7.6088,-7.5891,-7.5904,-7.5913,-7.5919,-7.6526,-7.6533,0,0,0,0,0,0,-7.5117,-7.5148,-7.5415,-7.542,-7.5424,-7.559,-7.5554,-7.579,-7.5609,-7.5537,-7.5593,-7.5585,-7.5749,-7.5769,-7.5827,-7.6075,-7.6085,-7.5891,-7.59,-7.5907,-7.5911,0,0,0,0,0,0,0,-7.5129,-7.4916,-7.5408,-7.542,-7.5424,-7.5645,-7.5649,-7.5653,-7.5607,-7.5601,-7.5594,-7.5588,-7.5814,-7.5829,-7.5844,-7.6064,0,0,-7.589,-7.5896,0,0,0,0,0,0,0,0,-7.4903,-7.4913,-7.5409,-7.5412,-7.5415,-7.5646,-7.5649,-7.5652,-7.5606,-7.5601,-7.5596,-7.5591,-7.5818,-7.583,-7.5842,0,0,0,0,0,0,0,0,0,0,0,0,0,0,0,-7.5409,-7.5412,0,-7.5646,-7.5649,-7.5651,-7.5605,-7.5601,-7.5597,-7.5593,-7.5822,-7.5831,-7.5841,0,0,0,0,0,0,0,0,0,0,0,0,0,0,0,0,0,0,0,0,0,0,0,0,0,0,0,0,0,0,0,0,0,0,0,0,0,0,0,0,0,0,0,0,0,0,0,0,0,0,0,0,0,0,0,0,0,0,0,0,0,0,0,0,0,0,0,0,0]}]]]